Wind_Speed
12 12 13 14 14 12 14 15 13 12 16 20 14 9 11 9 11 13 12 18 18 11 10 10 10 14 17 16 11 11 17 21 22 23 22 22 25 26 27 28 26 25 26 28 26 22 22 25 25 26 27 26 24 22 22 23 22 19 18 17 17 18 19 19 19 19 18 18 19 20 20 20 20 20 21 23 23 24 25 25 26 28 28 28 29 29
12 13 14 15 15 13 14 14 10 10 15 19 15 12 14 11 9 12 13 18 23 19 14 12 12 15 19 18 16 15 16 16 20 23 20 19 22 24 26 29 30 32 31 30 29 26 24 25 25 25 25 24 23 22 23 23 20 18 18 18 18 18 19 19 19 19 18 18 19 20 21 21 21 21 21 22 23 23 24 24 25 26 28 29 29 29
12 13 12 15 17 15 14 13 13 15 17 19 17 14 16 13 9 14 20 20 21 21 16 12 15 15 16 18 20 20 17 19 23 22 20 22 24 23 25 28 32 34 33 30 29 27 27 27 25 23 21 22 22 23 23 22 19 18 17 18 18 19 20 20 19 19 19 18 18 20 20 20 21 21 21 22 22 22 23 23 24 25 27 28 29 29
11 11 13 17 18 16 16 15 15 16 17 18 16 15 15 10 8 14 21 23 23 26 21 14 13 13 17 18 19 20 20 21 22 21 22 25 24 21 22 27 31 34 34 32 30 29 31 29 25 23 21 21 22 23 22 22 20 18 18 20 20 21 20 20 19 19 18 18 17 19 20 19 19 20 21 22 22 22 22 23 23 24 25 27 28 28
11 12 17 19 12 11 15 16 15 15 16 17 15 16 15 9 8 12 21 26 27 28 23 18 17 15 17 16 12 15 19 21 21 23 25 25 24 23 22 24 29 33 34 32 30 30 31 29 25 23 23 23 23 22 22 23 22 20 19 21 22 23 22 20 19 18 17 17 17 18 20 20 20 20 20 21 22 23 23 23 23 24 25 26 26 27
12 17 21 19 12 11 13 14 16 16 17 17 16 17 17 14 14 15 20 27 25 23 19 18 18 14 16 17 14 11 15 20 21 21 22 21 23 24 23 22 24 29 31 31 31 30 28 27 27 25 25 24 22 22 24 24 23 22 21 22 23 24 24 21 20 18 17 16 16 18 20 20 20 21 21 21 22 23 23 24 24 24 24 25 26 27
16 24 22 16 14 15 14 15 17 17 18 18 17 18 19 20 21 19 20 23 21 17 17 19 19 15 14 14 12 11 15 21 22 19 18 18 20 23 24 23 23 26 28 30 31 29 27 26 28 28 26 24 22 24 27 24 22 23 22 23 24 24 25 24 22 19 18 17 17 18 19 20 21 21 22 22 22 23 23 24 24 24 24 24 25 26
20 25 22 16 14 14 15 16 17 18 19 20 20 21 21 21 24 24 23 24 22 19 20 23 22 20 19 17 14 12 15 21 22 19 18 18 18 21 23 23 22 25 26 28 31 32 31 27 26 27 26 25 23 25 29 26 21 23 24 25 25 24 26 26 24 21 19 19 20 20 20 20 21 21 22 22 22 23 24 24 23 23 23 24 24 25
23 24 22 18 16 15 15 16 17 18 18 21 22 23 23 22 23 25 25 25 25 25 25 25 23 24 25 22 18 15 16 21 22 20 20 20 16 17 20 19 20 23 23 24 27 30 32 30 26 26 26 26 25 24 26 27 25 26 26 26 26 25 27 28 26 23 21 22 24 23 21 21 21 22 22 22 22 23 23 23 23 23 23 23 24 24
19 23 22 17 15 16 15 14 15 17 17 20 23 22 22 21 20 21 22 21 23 27 27 23 22 24 23 20 18 16 16 19 21 21 22 22 19 20 23 23 22 24 23 23 24 26 29 30 28 27 28 28 28 27 25 27 31 32 28 27 28 27 28 29 28 25 23 24 27 26 24 22 22 22 22 22 22 22 22 22 22 22 23 23 23 23
14 20 22 17 16 16 16 16 15 18 19 20 21 19 20 20 18 20 22 22 23 26 26 21 21 23 23 20 16 16 18 21 21 20 19 22 25 25 25 24 25 25 25 26 28 29 29 29 27 27 28 28 30 32 30 28 32 34 31 30 31 30 29 29 29 27 25 26 28 28 26 22 20 21 21 21 21 21 20 20 21 21 22 23 23 22
15 18 19 18 18 18 19 20 19 20 19 19 19 18 18 19 20 23 24 24 24 24 22 18 18 21 23 21 16 17 22 23 22 20 21 25 28 27 23 23 25 25 25 27 29 30 30 30 29 29 30 30 30 33 35 34 34 36 37 37 34 32 30 29 29 28 26 27 28 27 25 21 18 18 19 19 19 19 19 19 19 20 20 21 22 21
19 15 13 15 17 18 19 20 20 20 19 20 20 19 20 21 22 24 24 23 23 22 20 17 17 19 20 19 18 20 24 25 25 25 26 29 29 27 25 27 28 28 29 31 33 33 33 34 34 32 32 34 34 35 36 38 38 38 41 41 36 33 31 29 30 29 27 27 27 24 23 20 17 16 15 16 17 17 18 18 18 19 19 20 20 20
15 12 11 11 12 16 18 18 16 14 16 20 20 19 22 23 22 22 21 20 20 19 17 16 18 18 18 18 17 18 23 26 27 27 27 29 29 27 28 30 32 32 30 32 33 32 34 35 35 36 36 37 37 36 35 36 37 38 40 43 40 34 32 31 30 30 27 25 23 21 20 18 15 14 13 14 15 16 17 18 18 18 19 19 19 19
11 10 10 7 6 10 13 16 15 10 11 16 19 19 19 20 21 20 18 17 16 16 15 15 18 18 18 18 16 17 20 20 20 23 25 26 26 26 28 30 32 30 28 30 31 31 33 34 35 36 36 37 37 35 33 33 36 38 37 40 42 37 32 33 32 29 26 23 21 19 18 16 14 13 13 14 15 16 17 18 18 19 19 20 20 20
11 8 8 8 10 11 9 11 13 12 10 10 15 18 17 17 19 19 19 18 17 19 18 16 17 17 17 17 17 21 23 21 22 26 26 26 28 28 28 28 30 29 27 30 31 31 31 32 31 31 32 35 35 33 32 32 34 37 33 34 41 39 32 32 33 28 24 22 20 17 16 14 13 13 14 15 15 16 16 17 18 19 19 20 20 20
13 8 6 9 13 14 11 11 10 11 13 12 12 14 16 17 18 18 18 18 19 21 20 19 20 20 19 19 21 24 24 24 28 30 28 28 29 29 28 27 28 27 25 27 29 29 30 30 29 29 29 30 32 31 31 31 31 33 31 30 35 36 30 30 31 27 23 21 19 18 16 14 13 14 15 16 16 17 17 18 19 20 20 20 20 20
18 14 11 10 9 10 14 15 12 11 13 13 10 9 11 15 16 17 16 15 17 20 18 17 20 19 18 20 24 26 24 24 28 28 26 25 24 23 25 26 26 25 24 26 27 29 31 31 31 30 29 28 29 30 30 30 29 30 31 30 32 33 30 30 30 25 22 20 18 17 16 15 16 16 16 17 18 18 19 20 20 21 20 20 20 19
21 18 19 17 9 6 10 14 13 12 13 14 12 10 10 12 13 14 16 16 18 19 18 17 18 18 16 17 22 25 23 22 24 23 23 23 23 22 22 23 24 25 25 26 26 28 30 31 30 29 28 28 28 29 29 29 29 29 29 28 30 32 31 32 32 26 21 20 20 19 18 18 18 18 18 19 19 19 20 20 20 19 19 19 19 19
24 22 22 21 14 10 10 12 13 14 14 14 15 16 16 17 15 14 16 18 18 18 18 18 17 17 17 17 18 22 22 22 23 23 23 24 26 26 23 21 23 25 25 25 25 26 27 28 29 29 28 28 28 29 30 31 31 31 29 27 29 31 29 30 34 30 26 25 24 24 23 22 22 21 21 21 20 20 21 21 20 20 19 19 19 19
26 24 22 19 18 17 15 15 14 15 14 12 13 16 17 18 18 18 19 19 19 19 20 21 19 17 18 18 19 20 21 21 22 23 24 25 28 29 25 23 25 25 24 24 24 24 26 27 29 29 28 28 28 29 31 33 33 33 32 30 30 31 30 30 32 32 29 27 26 26 26 26 25 24 23 22 21 21 21 21 22 23 22 21 20 20
27 25 23 20 19 20 19 17 16 16 16 15 14 16 17 15 16 19 20 19 18 20 21 22 21 21 21 20 20 21 21 22 22 23 25 28 31 30 25 24 27 26 25 26 25 25 25 26 28 30 30 29 29 30 31 33 34 34 35 33 32 33 34 32 31 31 31 29 27 28 28 28 27 26 25 23 23 23 22 22 24 25 25 24 23 22
28 25 24 23 22 24 23 20 17 17 18 17 18 20 20 19 19 22 22 20 20 22 22 21 21 23 23 23 24 24 25 26 26 26 26 28 33 31 25 24 28 28 28 28 28 28 28 27 28 30 31 31 30 31 32 33 34 35 37 37 38 37 36 35 33 33 33 31 29 30 31 31 30 30 28 26 26 25 23 23 25 26 26 26 25 24
29 26 26 26 26 28 27 25 23 24 25 25 24 26 27 25 24 25 25 24 26 28 26 25 25 26 26 27 27 27 27 28 29 30 28 31 37 36 29 28 31 32 32 31 31 30 30 30 29 30 32 33 32 32 33 34 35 36 36 37 38 38 37 37 37 37 36 33 32 33 34 34 34 33 31 29 28 26 25 26 26 27 28 28 27 27
29 29 30 30 30 30 29 28 24 21 22 22 20 25 31 31 30 30 30 30 33 34 31 30 31 30 29 29 30 30 29 27 27 28 29 33 39 39 34 33 34 34 34 33 31 30 28 29 29 30 32 34 34 34 34 36 37 37 38 37 36 36 36 36 36 37 37 36 35 35 36 36 37 36 34 32 29 27 28 29 30 30 30 30 31 30
31 32 33 32 32 32 30 28 23 19 23 25 24 26 31 31 30 31 31 33 35 35 34 32 31 31 30 30 30 31 32 31 29 30 31 34 38 40 39 36 35 34 34 33 32 30 29 29 29 30 32 35 37 37 37 37 38 39 40 40 39 38 37 36 35 35 34 36 38 39 40 39 39 39 38 35 31 29 30 31 32 34 33 33 34 32
34 35 34 34 34 34 33 31 29 29 31 33 32 33 33 31 30 30 31 33 34 35 33 32 32 33 32 31 29 27 27 27 29 33 35 35 38 40 40 39 37 35 35 35 34 33 34 34 33 35 36 37 39 41 41 40 41 41 41 42 43 42 41 40 39 37 36 37 39 40 42 42 42 44 43 39 34 33 35 35 35 37 38 36 36 34
36 36 36 36 36 36 35 35 35 34 35 36 37 37 36 36 37 37 37 36 37 38 37 34 35 37 36 35 35 32 30 28 28 31 33 34 37 41 41 42 42 38 36 38 39 38 39 38 39 41 42 42 42 43 45 45 44 44 44 44 45 45 45 45 44 42 41 40 39 40 41 41 41 41 41 39 37 37 39 39 37 37 37 37 35 33
37 37 38 39 38 38 38 38 38 37 38 40 40 40 41 41 42 43 43 41 40 43 43 40 38 38 37 38 40 39 38 39 37 34 33 32 35 38 40 42 43 40 38 41 42 42 41 39 39 41 44 45 42 42 46 48 48 48 47 47 47 46 47 47 47 47 47 46 44 43 43 43 42 41 41 41 40 40 41 42 41 39 38 38 38 38
39 39 40 41 42 42 41 42 43 42 43 43 42 42 44 44 43 44 43 42 41 42 43 41 41 41 40 41 43 43 43 44 43 40 38 36 34 34 36 39 40 38 37 38 39 41 42 39 38 39 43 44 42 41 43 47 51 52 51 51 50 50 49 49 49 50 50 49 49 48 47 47 46 44 43 43 43 44 45 45 46 45 43 42 43 44
40 41 41 42 42 43 43 43 45 45 45 46 45 45 46 46 46 47 46 44 43 42 42 42 43 43 43 45 48 48 45 45 46 45 42 40 38 37 38 40 40 37 36 38 39 41 44 42 39 40 41 42 42 42 42 44 48 52 54 54 53 53 53 53 53 53 52 52 52 52 51 50 49 47 47 47 47 48 50 50 50 50 49 48 48 48
39 41 41 40 42 43 42 42 43 42 44 46 46 45 46 46 46 47 47 46 44 43 43 44 43 43 44 47 48 47 45 44 45 47 46 43 43 41 38 39 41 41 40 40 40 44 46 45 44 43 40 38 41 42 43 43 43 45 50 54 54 54 55 56 56 56 56 56 55 54 53 52 51 50 50 50 50 50 52 52 52 52 52 51 52 52
36 38 38 37 39 42 40 39 40 41 42 44 43 42 41 42 44 44 43 43 43 42 42 44 45 46 46 46 46 46 46 45 45 46 47 47 47 44 39 37 39 41 41 41 42 45 46 46 49 47 40 37 40 40 41 43 42 41 44 47 49 50 52 53 54 55 55 55 55 55 54 53 52 51 50 50 51 51 52 53 54 54 54 54 53 54
40 42 42 41 41 42 40 38 39 41 43 42 40 40 40 41 43 43 42 42 43 43 43 44 47 48 45 44 45 46 47 47 47 47 47 47 48 49 48 45 44 44 44 43 44 46 46 48 53 50 42 40 43 42 42 44 45 44 44 44 44 46 48 49 50 51 52 52 52 52 52 53 54 53 51 50 51 51 51 53 54 55 57 57 56 56
45 47 48 47 46 45 44 43 44 46 46 44 42 44 45 45 45 44 43 43 44 45 45 45 46 47 45 44 46 47 47 47 47 47 47 48 48 49 50 50 50 51 51 49 49 49 49 50 51 48 44 43 45 45 46 47 47 47 47 47 47 47 49 50 50 50 51 50 51 51 50 51 53 55 55 54 53 52 52 52 52 53 54 54 54 55
46 48 48 47 46 45 45 45 47 48 47 45 46 47 48 48 47 44 42 42 43 45 44 43 44 46 46 45 47 48 48 47 46 47 48 47 47 48 48 48 48 48 49 50 50 50 51 51 50 49 49 49 49 49 51 51 51 50 50 51 51 51 51 51 50 50 51 50 51 51 51 50 51 54 56 57 58 58 57 57 57 57 57 56 56 56
45 46 48 48 46 46 46 47 48 48 47 47 49 49 48 48 46 43 41 39 41 44 43 43 44 46 47 46 47 49 50 48 47 49 50 48 48 50 51 50 50 49 50 51 52 53 54 54 54 56 57 56 54 54 54 54 54 54 54 54 54 53 51 49 49 49 50 50 51 51 51 51 51 52 54 56 57 59 60 60 61 61 62 61 61 61
43 46 47 48 47 46 47 47 47 46 46 46 45 43 43 44 43 43 41 39 39 41 41 42 45 47 47 47 47 48 50 48 48 49 49 48 50 54 53 52 53 54 54 54 55 55 55 55 56 59 60 59 57 54 52 54 55 55 55 54 54 53 51 49 48 49 49 49 50 51 51 52 52 53 54 54 55 56 57 58 59 60 60 60 60 60
44 46 46 46 45 44 43 43 43 43 43 42 42 41 41 42 41 41 41 41 42 42 42 44 46 48 49 49 47 47 48 49 49 49 47 45 48 53 54 54 55 56 56 56 55 54 55 57 60 62 62 62 60 56 54 55 57 57 56 55 54 52 51 50 49 49 49 50 50 51 52 53 53 54 54 55 55 56 56 57 57 58 58 58 58 58
42 44 44 43 43 41 41 41 41 41 42 42 43 44 44 44 43 42 42 44 45 45 46 47 49 49 50 50 49 46 47 49 51 50 48 46 47 50 53 55 56 56 56 57 57 57 58 60 63 63 61 61 61 59 57 57 57 57 56 54 53 51 50 50 49 49 50 49 49 50 52 53 53 54 55 55 56 57 57 57 57 58 58 58 58 58
36 37 37 37 38 39 40 40 39 40 42 42 43 45 46 46 46 46 47 48 48 47 48 49 51 51 51 51 50 49 49 51 52 51 50 48 49 50 51 53 54 55 55 56 57 58 59 59 61 61 60 60 60 59 57 55 55 54 53 52 51 50 49 49 49 49 49 49 49 50 51 52 53 54 54 55 56 56 57 57 57 57 58 58 58 58
35 36 35 36 37 38 39 40 40 41 42 42 43 46 48 48 47 49 51 51 48 47 47 49 51 52 52 52 53 53 52 53 53 52 51 51 52 52 52 53 54 56 57 57 57 57 57 57 59 59 60 60 60 59 58 55 53 52 51 51 50 50 50 49 49 49 49 48 48 49 50 51 52 53 53 54 55 56 56 57 57 57 57 57 58 57
38 38 38 39 39 39 40 41 41 41 41 42 44 46 47 48 48 49 50 49 48 48 48 49 50 52 54 55 56 55 53 52 52 52 52 52 53 53 53 54 55 56 57 58 58 58 57 57 58 59 60 61 61 60 58 56 54 53 52 52 51 51 50 50 49 49 48 48 48 48 49 50 51 52 52 52 53 54 54 55 55 56 57 57 57 56
38 38 38 39 40 40 40 39 40 41 41 42 43 45 46 48 48 47 47 47 48 49 50 50 52 54 55 56 56 55 53 52 51 52 52 52 52 52 52 53 54 55 57 57 58 58 58 57 57 57 58 59 60 60 58 57 56 56 55 53 52 52 51 50 50 50 49 48 48 48 48 49 49 50 50 50 50 51 52 52 53 54 54 55 55 55
38 39 39 40 40 39 39 38 39 40 40 41 44 46 47 47 47 47 47 47 48 50 50 51 52 52 52 53 53 53 53 52 52 52 53 53 53 53 52 52 53 55 56 56 57 58 58 58 57 57 58 59 60 60 59 58 57 56 55 54 53 52 51 51 51 50 50 49 49 48 48 48 48 48 49 49 49 50 51 51 51 52 52 51 52 53
38 37 37 37 37 38 38 38 38 38 39 42 45 46 47 47 47 47 47 47 49 50 50 49 49 48 49 51 52 52 52 53 53 52 53 53 53 52 52 51 52 53 54 55 56 57 57 57 57 58 58 59 60 60 60 59 58 56 55 54 54 53 52 52 52 51 51 50 49 49 48 47 47 47 47 48 48 48 49 50 49 49 49 50 50 51
37 35 34 34 35 36 36 37 38 39 40 41 43 44 45 46 46 47 47 47 47 48 48 48 49 49 49 50 51 51 51 52 53 53 53 54 53 52 52 52 52 52 53 54 55 56 57 57 58 58 59 59 59 60 60 59 57 56 55 55 54 53 52 53 53 52 52 51 50 49 48 47 47 46 45 46 47 46 47 47 47 47 47 47 47 48
33 32 32 34 35 35 34 36 38 38 39 40 41 43 45 46 46 46 47 48 48 49 50 50 51 50 50 50 51 51 51 51 53 54 54 54 54 53 53 53 53 53 53 54 55 56 57 58 58 59 59 59 58 59 60 59 57 56 56 56 55 54 54 54 54 53 52 51 50 49 48 47 46 44 44 46 46 46 45 45 45 45 46 45 45 46
30 31 32 33 34 34 35 37 38 38 39 41 43 44 45 46 46 47 48 49 50 50 51 51 51 52 52 52 53 53 52 52 53 54 55 55 55 55 55 55 54 54 54 54 55 56 57 57 58 58 59 59 58 59 60 60 58 57 57 57 56 55 55 55 54 53 51 50 49 48 47 47 46 46 46 47 47 46 46 46 46 46 45 45 45 45
30 31 31 32 34 35 37 38 39 40 40 42 42 43 45 45 45 46 47 47 47 47 48 48 49 50 50 51 52 53 53 52 52 53 55 55 55 56 57 57 56 56 56 56 56 56 56 57 57 58 58 59 59 60 61 61 60 59 59 58 57 56 56 55 54 53 51 49 48 47 48 48 47 47 48 48 47 47 47 47 46 46 45 46 46 45
31 31 31 32 34 36 37 39 40 41 41 40 41 41 42 42 42 42 43 43 43 42 43 43 44 45 46 46 47 48 48 48 48 49 51 52 52 53 55 56 56 57 57 57 57 57 57 57 58 58 58 59 59 60 61 61 60 59 58 57 57 56 55 55 54 53 52 50 48 47 49 49 49 49 49 47 46 46 47 47 47 46 46 46 46 45
Wind_Direction
246 247 245 240 234 227 216 219 233 234 210 196 198 217 232 236 210 205 234 247 245 252 247 232 202 201 221 229 227 248 265 260 248 245 249 252 257 266 273 274 272 269 269 272 274 276 278 278 280 280 279 280 281 280 277 276 276 284 289 290 292 289 287 285 281 279 278 281 285 285 284 281 278 275 273 272 269 267 266 265 264 263 262 261 262 266
247 247 249 246 242 240 234 233 238 222 206 208 218 213 206 212 216 222 235 257 265 254 244 242 208 216 235 220 217 244 249 242 248 256 260 259 255 256 265 270 272 273 272 273 276 279 280 279 281 281 281 280 279 276 274 275 279 284 286 289 291 288 287 286 283 281 278 281 286 287 285 283 281 280 279 277 273 271 270 267 264 262 262 262 263 266
247 245 249 252 248 242 237 233 225 219 215 217 231 226 196 188 201 222 227 237 261 260 252 238 197 208 242 228 220 233 238 242 256 268 268 268 266 259 259 263 266 269 271 271 272 277 277 276 280 282 282 281 279 276 274 276 279 284 289 290 289 288 287 285 284 283 281 285 289 290 287 283 282 282 282 282 279 276 274 270 267 264 263 264 265 267
245 242 242 249 253 247 238 238 231 227 227 221 231 229 197 186 206 226 241 240 247 259 256 240 220 220 230 227 226 235 245 252 264 275 269 268 271 263 257 260 263 264 265 267 268 271 272 271 275 279 279 279 280 278 273 274 278 284 290 291 291 288 285 286 286 286 287 290 294 296 292 287 283 281 282 283 282 281 279 275 272 269 268 267 268 270
238 245 245 244 250 251 240 240 238 232 234 230 232 228 205 202 218 229 258 254 243 252 258 257 263 252 231 234 244 245 248 258 270 271 266 267 268 263 257 257 264 264 262 265 266 267 270 270 272 277 281 281 281 279 272 274 279 284 289 292 294 292 288 290 291 292 293 293 296 298 294 290 287 283 282 282 282 283 281 280 278 275 274 273 274 275
234 244 249 247 243 250 247 241 241 237 236 234 234 233 222 223 222 217 247 255 248 252 257 256 257 253 250 255 263 259 245 255 268 261 262 268 261 260 262 256 262 266 264 264 264 267 272 274 274 274 277 278 279 278 272 272 279 284 289 291 293 294 293 293 297 299 296 294 297 297 294 291 288 286 284 283 282 282 282 282 281 280 279 278 278 278
230 242 250 256 252 251 250 243 242 241 240 239 237 235 230 229 227 221 234 248 253 258 257 258 254 246 251 251 251 267 257 255 263 257 259 268 257 256 261 256 258 265 267 266 265 266 269 271 272 271 272 274 277 277 265 260 272 282 287 290 291 294 295 296 298 301 299 296 296 295 292 291 289 288 285 284 282 281 281 282 282 282 281 280 279 278
238 246 254 258 255 249 245 242 243 242 240 239 240 241 238 232 231 236 245 251 259 265 260 263 266 256 256 253 238 240 244 247 257 261 261 265 259 254 257 258 258 260 264 267 266 267 266 266 269 272 274 274 276 275 261 252 266 284 287 289 292 293 295 296 297 300 301 297 296 294 292 291 291 289 286 284 281 280 280 280 281 281 280 280 280 279
245 248 255 255 249 247 244 243 244 245 242 238 239 244 244 238 234 239 248 254 258 261 258 260 265 263 261 261 247 226 224 237 250 259 260 261 257 251 256 257 253 255 260 265 267 269 269 268 267 270 273 272 271 272 264 255 267 285 288 287 291 292 293 294 294 298 300 297 295 295 294 292 291 289 286 284 280 278 277 278 278 278 277 277 277 278
253 248 254 256 248 244 239 239 243 244 242 238 241 246 249 247 243 242 246 251 252 254 256 255 257 261 262 264 256 236 229 240 250 257 261 262 254 246 251 253 253 259 264 266 266 267 271 271 270 270 271 271 272 274 273 263 267 279 284 285 289 289 289 290 292 295 297 298 295 295 295 293 290 288 285 282 279 277 276 277 278 277 277 276 275 276
258 252 253 254 249 245 235 232 241 247 243 241 244 246 247 246 246 247 248 248 249 252 257 258 256 259 260 259 253 238 239 250 256 257 254 254 254 251 254 259 261 263 265 265 264 264 268 270 270 269 269 274 278 279 279 270 266 272 278 283 286 284 284 287 289 292 295 296 294 294 294 290 287 286 283 281 278 277 277 277 277 277 277 277 276 276
245 260 262 253 246 247 242 239 245 250 249 249 249 244 240 241 242 246 249 249 252 255 259 262 256 254 255 253 244 231 236 245 251 249 241 246 256 259 260 266 267 265 265 265 265 265 268 269 269 266 264 268 271 274 275 273 269 268 271 278 280 278 279 282 284 288 292 293 290 290 289 285 283 282 281 281 278 276 276 275 275 275 275 275 275 275
242 253 262 256 248 244 242 241 243 247 252 253 251 246 239 238 241 244 248 251 253 255 256 254 248 246 250 251 244 236 239 243 245 247 247 251 261 264 266 270 270 269 269 268 268 270 270 270 267 264 263 263 262 265 269 272 274 271 269 273 275 274 276 277 280 285 289 288 284 284 283 279 277 277 279 280 278 276 274 273 274 273 272 273 272 272
244 235 237 251 252 244 235 232 233 243 256 250 241 240 240 239 243 246 248 251 255 258 255 250 246 243 247 252 249 242 243 245 247 252 257 259 264 268 269 269 268 269 270 271 272 271 270 269 266 264 265 264 261 260 263 268 274 271 267 269 271 271 274 274 277 282 282 279 276 276 276 274 273 276 279 280 279 277 274 273 272 271 271 271 270 270
239 231 239 241 236 242 230 219 218 219 244 248 235 234 240 241 243 246 246 248 253 256 249 245 248 248 251 252 246 241 246 251 255 259 264 268 271 271 269 268 270 271 271 271 270 269 270 268 265 264 264 264 263 263 263 264 268 268 267 270 268 265 270 274 274 275 272 268 268 270 271 271 273 278 281 281 279 277 275 274 272 271 270 269 270 270
236 232 242 218 206 230 224 210 222 220 221 239 230 226 236 245 245 245 245 244 245 248 249 250 252 256 257 250 245 252 261 266 266 265 269 274 273 270 269 270 272 272 270 268 267 268 267 263 262 263 262 263 264 265 265 264 266 268 269 271 264 257 263 271 269 266 261 260 264 265 267 271 275 280 282 282 280 278 277 277 276 275 273 271 270 270
229 207 219 233 233 241 227 208 228 228 215 223 233 232 235 239 241 244 248 250 250 251 255 259 260 264 266 262 259 263 268 271 270 271 274 273 271 270 270 269 271 273 271 268 266 263 262 260 261 262 261 260 260 262 263 263 265 266 266 266 257 249 255 263 260 258 255 255 261 262 265 271 275 278 279 278 279 278 279 279 279 278 276 274 273 272
224 198 204 241 252 248 232 222 230 236 226 229 243 250 244 241 241 244 249 253 256 256 256 258 262 266 267 267 268 268 270 271 271 274 276 273 270 270 268 268 270 272 272 272 269 264 262 262 263 262 259 257 256 257 259 259 260 262 263 260 249 245 255 258 252 252 254 256 262 264 266 270 272 275 275 274 276 278 282 283 280 278 277 276 276 275
233 216 218 234 243 251 244 231 226 233 237 238 239 241 251 254 244 243 250 254 257 260 262 261 265 268 264 263 270 273 273 268 268 275 279 276 272 269 268 269 269 270 272 274 272 267 266 265 265 263 258 255 253 253 255 255 255 257 258 254 247 251 260 256 251 256 260 260 265 268 270 269 268 269 270 271 274 279 283 283 278 275 277 279 281 280
237 229 228 235 237 234 236 231 230 237 241 242 245 246 251 256 253 249 252 256 257 260 265 266 265 267 266 259 259 266 267 264 266 272 274 272 272 270 271 271 271 273 274 275 273 270 268 268 267 264 258 253 251 251 251 249 249 250 251 249 249 253 255 250 251 260 264 263 264 263 265 265 264 266 269 271 275 277 277 276 275 274 275 279 281 283
238 236 235 237 237 235 235 239 245 249 244 239 247 250 251 257 262 259 253 253 260 263 265 266 264 265 267 263 257 258 262 263 266 267 265 268 270 269 270 272 272 274 273 273 275 272 269 269 269 266 260 252 249 249 248 247 246 247 247 248 249 250 249 248 251 257 261 263 261 257 257 260 264 267 269 269 270 270 269 269 270 272 272 272 273 276
240 240 239 242 246 250 252 252 255 258 249 237 243 252 250 247 251 256 257 253 254 257 259 262 264 265 265 264 262 260 261 265 269 268 266 268 270 269 272 274 272 272 272 274 275 273 270 270 269 268 262 254 248 247 247 246 247 248 249 249 248 247 249 251 252 255 258 259 258 255 254 257 262 264 263 262 264 267 267 264 267 269 269 270 271 270
243 244 245 247 249 252 256 256 259 268 264 256 259 264 262 255 249 254 261 257 251 253 258 258 261 263 263 263 262 261 263 267 271 272 265 261 266 273 277 276 273 272 273 275 275 272 270 268 268 268 265 258 251 246 246 246 246 250 252 251 250 250 252 254 254 254 254 253 253 253 253 256 260 261 260 262 264 268 266 264 265 266 264 266 268 267
247 248 250 251 251 252 258 261 263 270 274 274 272 266 263 263 261 260 263 262 260 261 261 261 262 265 266 268 268 267 268 268 269 270 262 255 266 278 279 272 271 271 272 273 273 270 267 265 264 264 263 260 254 249 247 246 247 251 255 256 255 255 256 257 257 254 252 250 248 249 252 257 259 259 260 264 265 267 268 265 264 265 265 265 264 263
252 253 251 253 255 254 257 263 265 267 268 269 269 263 259 258 258 260 261 261 263 264 264 263 266 269 270 271 272 271 271 271 270 270 263 260 270 280 277 270 267 268 270 271 268 264 263 264 262 261 261 260 257 253 250 249 249 251 255 258 259 258 257 258 259 259 256 254 252 251 254 258 259 257 259 262 261 263 268 266 261 261 262 263 264 263
255 256 254 254 257 256 257 260 257 249 249 253 258 263 264 261 258 260 259 259 262 265 265 264 265 266 267 269 272 272 270 267 266 268 265 264 271 276 275 272 269 268 271 270 263 257 257 261 262 261 261 261 259 257 254 251 251 251 254 257 259 259 258 258 259 261 260 259 257 256 257 260 260 257 256 256 255 258 266 267 263 261 260 261 263 263
256 257 256 256 257 257 257 257 255 253 257 261 262 265 270 270 268 265 262 262 264 264 263 263 262 262 263 263 264 267 269 266 263 265 265 264 266 269 271 271 270 270 270 267 262 259 260 263 265 263 262 262 261 259 256 254 252 252 252 254 256 258 259 259 258 258 259 261 261 259 257 258 260 259 256 253 254 260 267 269 268 267 266 264 263 261
258 259 259 258 258 259 259 259 260 260 262 263 263 265 268 268 268 267 266 265 265 263 262 261 261 260 260 259 258 259 263 265 264 264 264 263 263 266 267 268 269 268 266 265 265 264 264 266 267 266 265 264 261 258 255 253 253 253 252 253 254 255 257 259 259 258 257 258 260 259 258 259 262 262 258 256 258 264 266 268 271 271 269 266 264 263
259 261 262 261 260 259 260 260 260 260 260 260 262 264 265 265 267 269 270 268 265 263 262 261 260 259 258 259 259 259 260 261 262 262 262 262 263 266 268 268 268 268 267 267 267 265 264 263 262 262 263 263 261 257 254 252 252 252 252 253 253 254 255 257 258 259 259 259 259 259 260 262 264 266 264 262 263 265 264 265 268 269 267 266 266 265
260 261 262 262 261 260 260 261 261 260 260 261 261 263 264 265 265 265 266 265 263 263 264 263 260 257 256 256 257 258 259 260 261 260 261 261 261 262 265 266 267 267 267 266 265 265 264 261 258 258 260 261 260 259 256 253 252 251 251 252 253 253 254 255 256 258 260 261 262 261 262 263 264 265 264 263 264 264 263 263 265 267 267 266 266 265
262 262 262 262 262 262 261 261 261 262 261 261 261 261 262 262 261 261 262 264 264 265 265 263 260 258 258 258 257 258 258 258 258 257 258 260 260 260 262 263 263 264 264 264 265 265 264 263 260 260 261 261 259 258 258 257 256 253 251 252 253 253 254 254 255 256 257 259 261 262 263 264 265 264 263 263 263 264 264 265 266 268 267 267 267 266
262 263 264 264 263 262 262 262 262 261 260 261 261 260 261 263 264 264 265 266 267 267 265 263 261 259 258 258 258 258 256 254 254 253 252 253 256 258 260 261 261 260 261 263 264 265 265 265 263 261 261 261 258 256 257 257 258 256 253 252 253 255 255 256 257 257 258 258 259 260 261 262 262 262 262 262 262 262 264 266 267 267 266 266 266 266
261 262 262 262 261 262 261 261 261 261 262 263 265 264 264 265 266 266 266 266 267 266 265 263 262 259 257 257 257 255 254 253 254 254 253 252 254 255 255 258 260 259 259 259 260 263 265 265 263 260 259 260 259 257 255 255 256 257 255 254 255 257 258 259 259 259 259 259 259 259 259 258 258 259 260 260 260 261 263 265 266 266 265 265 265 265
261 261 260 259 261 263 262 261 262 264 265 267 269 270 269 267 266 265 265 266 266 265 263 263 261 260 258 259 259 256 255 254 254 253 253 253 253 252 251 254 257 257 258 259 260 262 262 262 262 262 260 259 260 259 256 254 254 255 254 255 257 259 261 261 261 261 261 261 260 259 257 256 255 255 257 259 259 260 261 264 265 266 265 266 266 266
260 260 261 262 263 264 264 265 266 268 269 271 272 271 269 266 265 265 265 266 267 265 264 262 261 261 260 258 258 258 256 255 253 253 252 252 252 252 252 252 254 256 259 259 260 261 261 261 263 264 261 258 258 259 258 257 256 255 253 255 258 259 261 262 261 261 261 261 261 260 259 256 254 253 254 255 256 257 258 260 262 264 265 265 266 266
260 261 263 263 263 264 265 266 268 270 273 273 271 270 269 269 270 269 268 267 265 265 264 263 261 261 260 258 258 259 258 257 257 255 253 252 252 252 253 253 254 255 257 258 257 258 260 262 264 264 262 259 258 259 259 258 259 258 257 259 261 262 262 262 260 259 259 259 260 261 260 260 258 256 255 255 255 256 257 258 259 261 263 264 264 265
261 262 263 263 263 265 266 267 269 271 272 271 271 271 272 273 274 272 269 266 265 264 264 263 261 261 261 260 261 261 262 264 262 258 256 255 254 253 253 253 252 251 251 253 255 256 259 261 262 262 262 261 260 260 260 260 261 261 261 262 264 265 264 262 260 259 258 258 259 259 260 260 259 259 258 258 258 258 259 260 261 262 263 264 265 266
261 262 263 266 267 268 268 269 270 270 270 271 272 272 272 272 272 272 270 267 264 263 264 263 262 262 263 263 263 265 266 267 264 260 258 258 256 255 256 254 252 251 251 253 255 255 256 256 257 259 261 262 262 262 261 261 261 261 262 263 263 264 263 262 261 260 259 259 259 258 258 259 259 260 260 260 260 260 261 261 262 263 264 265 266 267
262 264 266 268 269 269 270 270 270 270 270 270 270 271 271 272 272 272 271 269 266 266 266 266 266 267 267 267 266 266 267 266 264 263 262 259 255 256 257 255 252 252 253 254 254 253 252 252 255 258 260 262 263 262 261 261 262 262 263 263 264 264 263 262 262 262 261 260 259 259 259 259 258 259 260 261 262 263 263 264 264 265 266 266 267 268
263 264 265 267 268 268 269 269 270 271 271 270 271 272 272 272 272 272 270 269 270 270 270 268 267 267 268 269 268 266 265 264 265 265 265 261 257 256 258 259 258 256 254 253 253 252 253 256 258 260 262 263 263 262 261 262 263 263 263 263 263 263 262 262 262 262 262 261 261 260 260 260 259 259 260 261 263 264 265 267 267 268 268 268 268 268
265 263 263 265 267 268 269 269 270 271 272 272 272 273 272 272 272 271 268 267 269 270 269 268 267 266 266 267 267 265 264 264 265 265 264 262 259 258 259 260 261 260 258 256 254 254 255 258 260 261 262 262 262 261 260 260 260 261 261 261 262 262 261 261 261 261 262 262 262 261 261 261 261 261 260 260 261 262 264 265 267 268 268 268 268 268
265 266 266 267 268 268 270 271 271 271 272 272 272 272 272 272 270 269 270 270 270 268 266 266 267 267 266 266 266 265 264 264 265 265 264 263 262 262 261 261 260 260 260 259 257 256 255 255 256 258 259 259 259 260 259 259 260 260 260 261 261 261 261 261 261 261 261 262 262 262 262 262 263 263 262 262 262 262 263 264 265 266 267 268 268 269
260 264 268 270 270 270 271 272 271 271 270 269 270 270 270 270 268 269 271 271 270 267 265 265 265 266 267 267 267 267 266 265 265 265 265 265 265 264 264 263 263 262 262 262 261 259 258 256 256 256 257 258 259 260 260 260 260 259 260 260 260 261 262 262 262 262 262 262 262 262 262 263 263 264 264 264 264 264 264 265 265 266 267 268 268 269
262 264 266 267 268 270 271 271 270 269 269 269 269 268 268 268 269 269 270 269 269 268 266 265 265 266 267 269 270 270 270 268 267 266 265 264 263 263 263 263 263 263 263 263 263 262 261 260 259 258 258 259 260 260 260 260 260 260 261 261 261 262 263 263 264 264 264 264 263 263 263 263 263 264 265 265 265 266 266 266 266 266 267 268 269 269
261 263 265 268 270 271 270 269 267 268 270 270 269 268 268 270 271 271 271 270 270 269 268 269 269 270 271 272 272 271 270 269 267 266 264 263 262 262 262 261 261 262 262 262 263 263 263 263 261 260 259 258 259 260 260 260 260 261 262 262 262 263 263 264 264 265 265 265 264 264 264 263 263 264 265 265 265 265 265 265 265 266 268 269 269 270
264 266 268 270 271 271 270 270 269 268 267 267 269 271 272 273 273 272 272 272 272 273 274 274 274 273 272 272 271 271 271 270 269 268 267 266 265 264 263 262 262 261 262 262 262 262 262 262 261 260 259 258 259 259 260 260 261 261 262 262 262 262 263 263 264 265 265 265 265 265 264 264 264 264 264 264 264 264 264 264 264 265 266 267 268 269
271 273 272 271 270 270 271 271 270 269 269 269 271 272 273 273 275 275 276 276 276 276 275 274 273 272 271 271 272 272 272 272 272 271 270 269 268 266 265 264 263 261 261 261 260 261 261 261 260 259 258 258 258 259 260 260 261 261 261 261 262 262 262 262 262 263 264 265 265 265 265 265 264 264 264 264 263 262 262 263 264 264 265 266 267 268
275 276 275 273 273 273 273 272 271 272 273 273 272 271 272 273 275 276 275 275 274 274 274 274 274 274 274 274 273 272 271 271 272 272 271 271 270 269 267 266 264 263 261 260 260 260 259 259 259 260 260 260 259 259 260 260 260 260 260 260 260 260 260 261 261 262 263 264 265 265 265 265 265 264 263 263 263 262 262 263 264 265 266 266 267 268
275 276 275 277 278 279 278 276 276 276 275 274 274 273 273 274 274 274 273 273 274 274 275 275 275 275 275 275 274 273 273 272 271 271 270 270 270 270 269 268 267 266 264 262 261 260 260 260 259 260 261 261 260 260 260 260 259 259 259 259 260 260 260 261 262 263 263 263 264 265 265 265 265 264 262 262 263 263 264 265 266 266 267 268 268 268
275 277 280 281 281 280 280 280 280 279 278 277 277 276 276 277 277 276 276 276 276 276 276 276 276 276 275 275 275 274 274 273 272 272 271 271 270 270 269 269 268 267 266 265 264 263 262 261 260 259 259 259 259 259 260 260 260 260 260 260 261 261 262 262 263 263 263 262 262 264 265 264 264 263 262 262 262 264 265 266 267 267 267 268 268 268
280 282 282 281 280 280 282 282 283 283 282 281 281 280 280 281 280 280 279 279 278 278 277 277 276 276 276 275 276 276 276 275 274 273 272 272 271 270 270 269 268 267 266 265 265 264 262 261 260 259 259 258 258 258 258 259 260 261 261 262 262 262 262 262 262 262 262 262 261 261 263 263 263 263 263 263 263 264 265 266 267 267 267 267 268 269
Height
5737 5737 5737 5738 5738 5740 5741 5741 5742 5743 5745 5746 5748 5751 5752 5754 5755 5758 5757 5752 5750 5753 5754 5754 5756 5759 5760 5760 5760 5757 5755 5754 5755 5757 5757 5755 5754 5754 5752 5752 5754 5756 5756 5755 5756 5760 5760 5759 5761 5761 5760 5759 5759 5760 5761 5761 5761 5761 5760 5760 5761 5762 5763 5764 5765 5766 5766 5766 5766 5766 5766 5766 5766 5767 5767 5767 5767 5767 5767 5768 5768 5768 5769 5769 5770 5770
5735 5736 5736 5736 5737 5739 5739 5740 5742 5742 5743 5744 5745 5747 5749 5752 5755 5756 5754 5750 5747 5751 5753 5753 5754 5758 5758 5758 5759 5757 5755 5754 5752 5753 5755 5756 5755 5756 5754 5751 5751 5751 5753 5753 5753 5756 5758 5757 5758 5758 5757 5757 5757 5758 5759 5759 5758 5758 5757 5758 5759 5760 5761 5762 5762 5763 5764 5765 5764 5764 5764 5764 5764 5764 5764 5764 5764 5765 5765 5765 5766 5766 5767 5767 5768 5768
5734 5735 5735 5735 5736 5737 5738 5739 5740 5740 5741 5743 5743 5745 5746 5749 5753 5753 5750 5748 5746 5747 5751 5750 5751 5755 5756 5756 5757 5754 5753 5752 5751 5752 5753 5754 5755 5756 5755 5751 5750 5749 5750 5752 5753 5754 5755 5755 5756 5756 5756 5755 5755 5755 5756 5756 5755 5754 5754 5755 5757 5758 5759 5759 5760 5761 5762 5762 5762 5761 5761 5762 5762 5762 5762 5762 5762 5762 5762 5763 5764 5764 5764 5765 5765 5766
5733 5733 5733 5733 5734 5736 5736 5737 5738 5739 5740 5741 5742 5743 5744 5746 5750 5751 5749 5748 5747 5745 5747 5748 5748 5751 5752 5753 5752 5751 5750 5749 5749 5750 5751 5751 5753 5754 5754 5751 5749 5749 5749 5751 5752 5752 5752 5753 5754 5754 5753 5753 5753 5753 5753 5752 5752 5752 5751 5752 5754 5755 5756 5757 5758 5758 5759 5759 5760 5759 5759 5759 5759 5760 5760 5760 5760 5760 5760 5760 5761 5761 5762 5762 5763 5763
5731 5731 5730 5732 5733 5733 5734 5736 5736 5738 5738 5739 5740 5741 5742 5744 5748 5750 5746 5744 5744 5743 5745 5746 5746 5747 5748 5749 5748 5749 5750 5747 5747 5747 5747 5748 5750 5751 5752 5751 5748 5747 5748 5749 5749 5749 5749 5750 5752 5751 5750 5750 5751 5751 5750 5749 5749 5749 5749 5749 5751 5752 5753 5754 5755 5755 5756 5757 5757 5757 5756 5757 5757 5757 5757 5758 5757 5757 5758 5758 5758 5759 5759 5760 5760 5760
5729 5727 5727 5730 5731 5732 5733 5734 5734 5735 5736 5737 5738 5739 5740 5741 5744 5746 5743 5740 5741 5743 5744 5744 5743 5744 5746 5745 5746 5748 5748 5744 5744 5745 5745 5746 5747 5747 5749 5750 5747 5745 5746 5746 5746 5746 5747 5747 5748 5749 5749 5749 5749 5749 5748 5747 5745 5745 5746 5747 5748 5749 5749 5751 5751 5752 5753 5754 5754 5754 5753 5754 5754 5755 5755 5755 5755 5755 5755 5756 5756 5756 5757 5757 5757 5757
5726 5724 5726 5728 5729 5730 5731 5732 5732 5733 5734 5735 5736 5736 5737 5738 5739 5740 5739 5738 5739 5741 5742 5741 5741 5743 5743 5744 5745 5746 5745 5742 5741 5743 5743 5743 5744 5745 5745 5747 5746 5743 5742 5743 5743 5744 5746 5746 5746 5747 5747 5747 5747 5747 5745 5746 5744 5742 5743 5744 5746 5746 5746 5747 5748 5749 5750 5750 5751 5751 5751 5751 5751 5752 5752 5752 5753 5753 5753 5753 5754 5754 5754 5754 5755 5755
5723 5722 5724 5726 5727 5728 5729 5729 5730 5731 5732 5733 5733 5733 5734 5735 5736 5736 5736 5737 5738 5739 5739 5738 5739 5740 5740 5742 5743 5745 5745 5741 5739 5740 5741 5742 5742 5742 5742 5743 5744 5742 5740 5740 5739 5740 5742 5744 5744 5743 5744 5744 5744 5744 5743 5743 5741 5739 5739 5741 5743 5744 5744 5744 5745 5746 5747 5747 5748 5748 5749 5748 5748 5749 5749 5750 5750 5751 5751 5751 5751 5752 5752 5752 5752 5752
5721 5721 5722 5724 5725 5725 5726 5727 5728 5729 5730 5730 5730 5731 5732 5733 5734 5734 5735 5735 5736 5736 5736 5736 5737 5736 5737 5739 5740 5742 5742 5739 5737 5739 5739 5740 5740 5740 5739 5740 5741 5740 5740 5739 5737 5736 5736 5739 5742 5741 5741 5742 5742 5742 5742 5742 5739 5736 5737 5739 5740 5741 5741 5741 5742 5743 5744 5744 5744 5745 5746 5746 5746 5746 5746 5747 5747 5748 5748 5748 5749 5749 5749 5750 5750 5750
5719 5719 5719 5721 5722 5723 5725 5726 5726 5727 5728 5727 5727 5729 5730 5730 5732 5733 5733 5733 5733 5732 5732 5734 5735 5734 5734 5736 5737 5739 5739 5736 5736 5737 5737 5737 5738 5737 5736 5737 5738 5738 5738 5738 5737 5736 5734 5735 5737 5739 5739 5739 5739 5738 5738 5740 5739 5735 5735 5736 5737 5738 5738 5738 5739 5740 5741 5742 5741 5741 5743 5743 5743 5743 5744 5744 5745 5745 5745 5745 5746 5746 5746 5747 5747 5747
5717 5716 5717 5719 5720 5721 5722 5723 5723 5724 5724 5724 5725 5727 5728 5728 5730 5730 5729 5729 5730 5728 5730 5733 5733 5732 5732 5733 5735 5735 5734 5733 5733 5735 5735 5734 5733 5733 5734 5735 5735 5735 5736 5736 5735 5735 5735 5735 5736 5736 5735 5735 5735 5734 5735 5737 5738 5736 5733 5733 5734 5735 5735 5736 5736 5737 5738 5738 5738 5738 5739 5740 5741 5741 5741 5741 5742 5742 5742 5743 5743 5743 5743 5744 5744 5744
5714 5714 5714 5716 5717 5719 5719 5720 5720 5721 5722 5722 5723 5724 5725 5726 5726 5726 5726 5726 5726 5726 5728 5730 5730 5729 5729 5730 5731 5731 5730 5729 5731 5733 5732 5730 5729 5731 5734 5734 5733 5734 5734 5733 5733 5733 5734 5734 5734 5734 5734 5734 5734 5733 5733 5733 5735 5734 5731 5730 5731 5732 5732 5733 5733 5733 5735 5735 5735 5736 5736 5737 5738 5738 5739 5739 5739 5740 5740 5740 5740 5741 5741 5741 5742 5742
5712 5712 5713 5714 5714 5715 5716 5717 5718 5719 5720 5720 5721 5722 5722 5723 5723 5722 5723 5724 5724 5725 5726 5727 5727 5726 5726 5726 5727 5728 5727 5727 5729 5729 5729 5728 5728 5729 5732 5731 5731 5732 5732 5730 5731 5732 5732 5732 5731 5732 5733 5733 5733 5733 5732 5731 5730 5730 5728 5726 5726 5728 5729 5730 5730 5730 5732 5732 5732 5733 5733 5734 5735 5736 5736 5736 5737 5737 5737 5738 5738 5738 5739 5739 5739 5740
5710 5711 5712 5712 5712 5712 5713 5715 5716 5718 5718 5718 5718 5719 5719 5719 5719 5720 5721 5721 5722 5723 5723 5724 5724 5724 5724 5724 5724 5724 5723 5724 5726 5726 5726 5726 5726 5727 5728 5727 5727 5728 5729 5728 5728 5728 5728 5728 5728 5728 5729 5729 5730 5731 5731 5730 5728 5726 5726 5724 5723 5725 5726 5726 5727 5728 5728 5729 5730 5730 5731 5732 5733 5733 5734 5734 5734 5735 5735 5735 5736 5736 5736 5737 5737 5738
5708 5709 5710 5711 5712 5711 5711 5713 5714 5716 5717 5716 5716 5717 5717 5717 5717 5717 5718 5719 5720 5720 5720 5720 5721 5721 5722 5722 5721 5721 5720 5722 5723 5723 5723 5723 5724 5724 5724 5723 5722 5724 5726 5725 5724 5725 5724 5724 5725 5725 5725 5723 5724 5727 5728 5729 5726 5724 5726 5724 5721 5722 5724 5723 5724 5725 5725 5726 5727 5728 5729 5729 5730 5731 5732 5733 5732 5733 5733 5733 5733 5734 5734 5735 5735 5736
5707 5708 5709 5710 5710 5710 5710 5711 5712 5713 5715 5715 5714 5714 5715 5715 5715 5715 5716 5716 5717 5717 5717 5718 5719 5719 5720 5720 5719 5718 5718 5720 5720 5719 5720 5720 5720 5720 5720 5719 5719 5720 5721 5720 5720 5721 5721 5721 5722 5721 5721 5720 5721 5722 5724 5724 5723 5722 5724 5723 5719 5719 5720 5720 5721 5721 5722 5724 5725 5726 5727 5727 5728 5729 5730 5731 5731 5731 5731 5731 5731 5731 5732 5733 5733 5734
5705 5707 5708 5708 5708 5708 5709 5710 5710 5711 5712 5713 5712 5712 5712 5712 5713 5713 5714 5714 5714 5715 5716 5716 5717 5717 5718 5718 5716 5715 5716 5717 5715 5715 5717 5716 5715 5715 5716 5716 5715 5716 5717 5716 5716 5717 5718 5719 5719 5719 5719 5719 5719 5719 5720 5720 5720 5719 5720 5721 5720 5717 5715 5716 5718 5719 5720 5721 5723 5724 5724 5725 5725 5726 5728 5728 5729 5729 5729 5729 5729 5730 5730 5731 5731 5732
5702 5704 5705 5706 5706 5706 5706 5707 5708 5708 5709 5710 5711 5711 5710 5710 5711 5711 5711 5712 5712 5712 5713 5714 5714 5715 5716 5715 5714 5713 5714 5714 5712 5712 5712 5711 5711 5711 5712 5712 5712 5713 5713 5713 5713 5714 5714 5715 5716 5716 5717 5717 5717 5716 5717 5717 5717 5717 5716 5717 5719 5718 5715 5713 5714 5717 5718 5719 5721 5722 5723 5723 5723 5724 5725 5726 5727 5727 5728 5728 5728 5728 5729 5729 5730 5730
5700 5701 5701 5702 5704 5705 5705 5705 5706 5706 5707 5708 5709 5709 5709 5709 5709 5710 5710 5710 5710 5710 5711 5712 5712 5713 5713 5713 5711 5710 5711 5711 5710 5709 5709 5708 5708 5708 5708 5709 5709 5710 5710 5710 5710 5710 5710 5711 5712 5713 5714 5714 5714 5714 5714 5714 5714 5714 5714 5714 5716 5717 5716 5714 5713 5715 5717 5718 5720 5721 5721 5721 5720 5721 5723 5724 5725 5726 5726 5726 5726 5727 5728 5728 5729 5729
5697 5699 5699 5700 5701 5704 5705 5704 5704 5705 5705 5706 5706 5706 5706 5706 5707 5708 5708 5708 5708 5709 5709 5709 5710 5710 5710 5710 5709 5708 5707 5708 5708 5707 5706 5705 5705 5705 5705 5706 5706 5706 5707 5707 5707 5707 5707 5708 5708 5709 5710 5711 5711 5711 5711 5712 5712 5712 5712 5712 5713 5713 5713 5713 5713 5714 5715 5716 5718 5719 5719 5718 5718 5719 5721 5722 5723 5724 5725 5725 5725 5726 5726 5726 5727 5727
5694 5696 5697 5698 5699 5700 5701 5701 5702 5702 5703 5704 5705 5704 5704 5705 5705 5705 5705 5705 5706 5707 5706 5706 5707 5708 5707 5706 5707 5706 5705 5705 5705 5705 5704 5703 5702 5701 5703 5704 5703 5703 5703 5703 5704 5704 5704 5705 5705 5706 5707 5707 5707 5708 5708 5708 5709 5710 5709 5709 5710 5710 5710 5711 5711 5712 5713 5715 5716 5716 5716 5716 5716 5717 5719 5720 5721 5722 5723 5723 5723 5723 5723 5724 5724 5725
5691 5693 5694 5696 5696 5697 5698 5699 5699 5700 5700 5701 5702 5701 5702 5702 5702 5701 5702 5703 5703 5703 5703 5703 5704 5704 5704 5704 5704 5704 5703 5702 5703 5703 5702 5700 5698 5698 5700 5701 5700 5700 5700 5700 5701 5701 5701 5702 5702 5702 5703 5704 5704 5704 5704 5705 5706 5706 5706 5706 5707 5707 5707 5708 5709 5710 5711 5712 5713 5713 5713 5713 5714 5715 5716 5717 5717 5718 5720 5721 5721 5720 5721 5721 5722 5722
5688 5690 5692 5693 5694 5694 5695 5696 5697 5697 5697 5698 5699 5699 5699 5699 5699 5699 5700 5701 5700 5700 5701 5701 5700 5700 5700 5700 5701 5701 5701 5700 5701 5700 5699 5697 5694 5695 5698 5698 5697 5697 5697 5697 5698 5698 5698 5698 5698 5699 5699 5700 5701 5701 5700 5701 5702 5702 5702 5702 5703 5703 5704 5705 5706 5707 5707 5708 5709 5710 5710 5711 5711 5712 5713 5714 5715 5715 5717 5717 5717 5717 5717 5718 5719 5720
5686 5688 5689 5690 5691 5692 5692 5693 5695 5694 5693 5695 5696 5696 5696 5696 5697 5697 5697 5697 5697 5697 5698 5698 5698 5697 5697 5697 5697 5697 5698 5698 5698 5698 5696 5693 5690 5692 5695 5695 5693 5693 5694 5694 5694 5694 5694 5695 5695 5696 5696 5696 5697 5698 5697 5698 5698 5699 5699 5699 5700 5700 5701 5701 5702 5703 5704 5705 5706 5706 5707 5708 5708 5709 5709 5711 5712 5713 5713 5713 5713 5713 5713 5714 5715 5716
5684 5684 5685 5686 5687 5689 5690 5691 5692 5692 5690 5690 5691 5690 5690 5692 5693 5693 5694 5693 5692 5693 5694 5695 5695 5694 5694 5694 5693 5693 5694 5694 5694 5694 5692 5689 5687 5688 5689 5690 5690 5689 5690 5690 5690 5690 5690 5691 5691 5692 5693 5693 5694 5694 5695 5694 5695 5695 5696 5696 5697 5697 5698 5698 5698 5699 5701 5702 5703 5703 5704 5705 5705 5706 5706 5707 5708 5709 5709 5709 5710 5710 5710 5710 5710 5711
5680 5679 5681 5682 5682 5684 5687 5688 5688 5686 5685 5685 5686 5685 5686 5688 5689 5689 5689 5689 5689 5690 5690 5691 5691 5691 5690 5690 5689 5689 5689 5689 5690 5690 5688 5686 5684 5684 5684 5684 5686 5686 5686 5686 5687 5687 5686 5687 5687 5688 5689 5690 5690 5691 5691 5691 5692 5692 5692 5693 5693 5694 5695 5695 5695 5696 5697 5698 5699 5700 5701 5701 5702 5702 5703 5704 5705 5705 5705 5705 5706 5706 5707 5707 5707 5708
5674 5674 5676 5678 5678 5680 5681 5682 5682 5681 5681 5682 5682 5682 5683 5684 5685 5685 5685 5685 5686 5685 5686 5687 5687 5686 5687 5687 5685 5684 5683 5684 5685 5685 5684 5683 5681 5680 5680 5680 5681 5682 5682 5682 5683 5683 5683 5683 5683 5684 5684 5685 5685 5686 5687 5688 5688 5689 5689 5689 5690 5690 5691 5691 5692 5693 5693 5694 5694 5695 5696 5697 5698 5698 5699 5700 5701 5701 5701 5701 5701 5701 5703 5704 5704 5705
5669 5670 5671 5672 5673 5675 5676 5677 5677 5677 5677 5677 5677 5678 5679 5679 5679 5680 5680 5681 5681 5680 5681 5683 5682 5681 5683 5683 5681 5680 5679 5679 5680 5680 5681 5680 5677 5676 5676 5675 5676 5678 5678 5677 5678 5678 5678 5679 5679 5678 5678 5679 5679 5681 5682 5683 5684 5684 5685 5685 5686 5686 5686 5687 5687 5688 5689 5690 5690 5690 5691 5692 5693 5694 5695 5695 5696 5697 5697 5696 5696 5697 5697 5699 5700 5701
5664 5665 5666 5666 5668 5669 5670 5671 5672 5672 5672 5672 5673 5674 5674 5674 5674 5674 5674 5676 5676 5674 5675 5678 5677 5677 5679 5678 5676 5676 5676 5674 5675 5676 5676 5676 5673 5672 5672 5671 5671 5673 5673 5672 5672 5672 5672 5674 5674 5673 5672 5672 5673 5675 5677 5678 5678 5679 5680 5680 5681 5681 5682 5682 5683 5683 5684 5685 5686 5686 5687 5688 5688 5689 5690 5691 5691 5692 5692 5692 5692 5692 5693 5694 5695 5695
5659 5660 5660 5660 5662 5663 5664 5665 5665 5665 5666 5666 5668 5669 5668 5668 5669 5668 5667 5669 5669 5668 5669 5671 5671 5671 5673 5672 5670 5670 5671 5670 5671 5671 5671 5671 5670 5668 5667 5667 5667 5668 5668 5667 5666 5665 5665 5667 5669 5668 5667 5667 5668 5670 5671 5672 5673 5674 5675 5675 5675 5676 5676 5677 5677 5678 5679 5679 5680 5681 5682 5683 5684 5685 5685 5686 5686 5687 5687 5687 5687 5687 5688 5689 5689 5689
5654 5654 5654 5655 5656 5657 5658 5658 5658 5659 5659 5660 5662 5663 5662 5662 5662 5661 5661 5663 5663 5663 5664 5663 5663 5666 5667 5664 5662 5664 5666 5665 5665 5665 5666 5666 5665 5664 5663 5662 5663 5664 5663 5662 5661 5658 5658 5661 5663 5663 5663 5663 5664 5665 5665 5666 5667 5668 5669 5670 5670 5670 5671 5671 5672 5673 5674 5674 5675 5676 5677 5678 5678 5679 5680 5680 5681 5681 5681 5681 5681 5682 5683 5683 5683 5684
5648 5648 5648 5649 5649 5650 5652 5652 5652 5652 5652 5653 5655 5656 5656 5655 5656 5656 5656 5657 5657 5656 5656 5656 5657 5659 5658 5655 5655 5657 5658 5658 5658 5658 5659 5659 5657 5658 5658 5657 5657 5658 5658 5658 5656 5653 5653 5655 5656 5657 5659 5658 5658 5659 5660 5660 5661 5663 5664 5664 5665 5665 5665 5665 5666 5667 5668 5669 5669 5670 5671 5672 5672 5673 5674 5674 5675 5675 5675 5675 5676 5676 5676 5677 5678 5678
5643 5642 5643 5643 5642 5644 5646 5646 5646 5645 5645 5647 5649 5649 5650 5650 5649 5650 5651 5651 5651 5649 5649 5649 5650 5649 5649 5648 5650 5650 5649 5650 5651 5652 5652 5652 5652 5653 5653 5652 5651 5651 5652 5652 5650 5648 5649 5649 5647 5650 5654 5653 5652 5654 5654 5654 5656 5658 5659 5658 5659 5660 5660 5660 5660 5660 5661 5662 5663 5664 5665 5665 5666 5667 5668 5668 5669 5670 5670 5670 5670 5670 5670 5671 5671 5672
5638 5637 5637 5637 5637 5638 5640 5640 5640 5639 5640 5643 5644 5643 5643 5643 5642 5643 5644 5645 5644 5643 5643 5643 5642 5641 5643 5643 5642 5642 5643 5645 5645 5645 5645 5645 5645 5646 5647 5647 5645 5645 5645 5646 5644 5643 5644 5641 5638 5644 5649 5648 5647 5648 5648 5649 5650 5652 5653 5653 5654 5655 5655 5654 5654 5655 5655 5655 5656 5657 5658 5659 5660 5660 5661 5662 5663 5664 5664 5664 5664 5664 5664 5664 5664 5664
5632 5630 5630 5631 5632 5633 5634 5634 5633 5633 5635 5638 5638 5636 5635 5635 5635 5637 5638 5639 5637 5636 5635 5636 5635 5635 5636 5636 5634 5635 5637 5637 5638 5638 5637 5637 5639 5640 5641 5641 5640 5640 5639 5639 5639 5638 5636 5634 5634 5639 5642 5641 5641 5641 5641 5642 5644 5646 5646 5647 5649 5649 5649 5648 5648 5648 5649 5649 5649 5650 5651 5652 5653 5654 5655 5656 5656 5657 5658 5658 5658 5658 5658 5658 5657 5657
5625 5624 5624 5625 5626 5627 5628 5627 5626 5627 5630 5630 5628 5627 5627 5628 5629 5630 5633 5633 5630 5628 5628 5630 5630 5628 5628 5628 5628 5628 5629 5630 5632 5631 5628 5631 5634 5633 5633 5635 5636 5636 5633 5631 5632 5632 5630 5630 5631 5632 5633 5634 5635 5634 5633 5635 5638 5639 5639 5640 5641 5642 5642 5642 5642 5642 5642 5643 5643 5643 5645 5646 5647 5647 5648 5649 5650 5650 5651 5651 5652 5651 5651 5651 5651 5650
5619 5618 5618 5618 5620 5621 5622 5621 5620 5621 5622 5621 5620 5620 5621 5621 5622 5622 5625 5625 5622 5620 5622 5623 5622 5620 5620 5622 5622 5621 5621 5624 5626 5623 5621 5625 5627 5624 5625 5629 5629 5628 5626 5624 5626 5627 5626 5625 5625 5623 5624 5626 5627 5627 5627 5628 5631 5632 5632 5632 5633 5634 5634 5635 5635 5635 5636 5637 5637 5637 5639 5640 5640 5640 5641 5642 5642 5643 5644 5644 5644 5644 5644 5644 5643 5643
5613 5612 5612 5613 5614 5615 5615 5615 5615 5615 5615 5614 5613 5614 5614 5614 5614 5615 5616 5616 5613 5613 5615 5616 5614 5613 5614 5615 5615 5615 5615 5616 5616 5613 5614 5619 5618 5615 5618 5621 5619 5619 5619 5618 5619 5620 5619 5618 5617 5615 5616 5618 5620 5621 5621 5621 5622 5623 5624 5625 5625 5626 5627 5627 5628 5628 5629 5630 5630 5630 5632 5633 5633 5633 5634 5635 5635 5636 5636 5636 5636 5636 5636 5636 5636 5636
5608 5607 5607 5608 5608 5609 5608 5608 5608 5608 5608 5608 5608 5607 5607 5608 5608 5608 5608 5607 5605 5607 5609 5608 5607 5606 5606 5607 5609 5609 5609 5607 5605 5605 5608 5610 5607 5606 5610 5611 5609 5610 5612 5611 5611 5611 5609 5608 5608 5609 5610 5611 5613 5616 5615 5614 5614 5615 5616 5617 5618 5619 5619 5620 5620 5621 5621 5622 5623 5623 5624 5625 5626 5626 5626 5627 5627 5628 5628 5628 5628 5628 5628 5629 5629 5629
5602 5602 5602 5602 5603 5603 5602 5602 5603 5601 5601 5602 5602 5601 5601 5601 5602 5602 5600 5598 5598 5600 5601 5600 5599 5599 5598 5599 5601 5602 5601 5598 5597 5598 5601 5601 5599 5598 5601 5601 5600 5602 5603 5603 5602 5601 5600 5600 5601 5603 5604 5605 5606 5608 5608 5607 5607 5607 5608 5609 5610 5611 5612 5612 5613 5613 5614 5615 5616 5616 5617 5617 5618 5619 5620 5620 5620 5620 5620 5620 5620 5620 5620 5621 5621 5621
5595 5596 5597 5597 5598 5597 5596 5597 5598 5596 5594 5595 5595 5594 5593 5594 5595 5593 5591 5591 5593 5593 5592 5591 5591 5591 5591 5591 5592 5592 5592 5590 5590 5592 5593 5592 5591 5591 5592 5593 5594 5594 5594 5594 5594 5593 5594 5595 5595 5595 5597 5598 5598 5598 5599 5600 5600 5600 5601 5602 5603 5603 5604 5605 5606 5606 5607 5608 5608 5609 5609 5610 5611 5611 5612 5613 5613 5613 5613 5613 5613 5612 5612 5613 5614 5614
5589 5590 5590 5591 5592 5591 5591 5591 5591 5590 5589 5589 5588 5587 5586 5587 5587 5584 5582 5584 5586 5586 5584 5584 5583 5583 5583 5583 5583 5583 5583 5582 5583 5584 5585 5585 5584 5584 5584 5586 5586 5585 5584 5585 5585 5585 5587 5588 5587 5587 5588 5588 5588 5588 5590 5591 5592 5593 5593 5594 5595 5596 5597 5597 5598 5599 5600 5601 5601 5602 5602 5603 5603 5603 5604 5605 5605 5606 5606 5606 5606 5606 5605 5605 5607 5608
5585 5585 5585 5585 5585 5585 5585 5585 5584 5583 5583 5582 5581 5580 5579 5578 5578 5576 5576 5578 5578 5577 5577 5577 5576 5575 5574 5573 5573 5574 5575 5576 5576 5577 5577 5577 5576 5576 5576 5577 5577 5577 5576 5576 5576 5577 5578 5578 5579 5580 5580 5580 5580 5581 5582 5583 5584 5585 5585 5587 5588 5588 5589 5590 5591 5592 5593 5594 5595 5595 5596 5596 5596 5596 5597 5598 5598 5598 5599 5599 5599 5599 5598 5599 5601 5602
5580 5581 5581 5579 5579 5579 5580 5578 5576 5576 5576 5575 5574 5573 5571 5570 5570 5570 5570 5571 5570 5569 5569 5569 5568 5567 5566 5565 5565 5566 5568 5569 5569 5568 5568 5568 5568 5568 5568 5568 5568 5568 5568 5568 5568 5568 5569 5570 5571 5572 5573 5572 5572 5573 5574 5575 5575 5576 5577 5579 5580 5581 5582 5583 5584 5585 5586 5587 5588 5589 5589 5590 5590 5590 5590 5591 5592 5592 5592 5592 5592 5591 5591 5593 5595 5594
5574 5575 5574 5574 5573 5573 5574 5573 5570 5569 5569 5568 5566 5564 5564 5564 5564 5564 5563 5563 5562 5561 5560 5560 5561 5561 5560 5559 5558 5558 5559 5559 5559 5558 5558 5559 5559 5559 5559 5559 5559 5559 5559 5560 5560 5560 5560 5561 5563 5563 5564 5564 5564 5564 5565 5566 5567 5568 5570 5571 5572 5573 5574 5575 5576 5577 5578 5579 5580 5581 5582 5583 5584 5584 5584 5585 5585 5585 5585 5584 5585 5585 5586 5587 5588 5587
5568 5569 5569 5569 5568 5567 5567 5567 5565 5564 5563 5561 5559 5558 5558 5558 5557 5556 5556 5555 5554 5554 5554 5554 5554 5554 5553 5551 5550 5550 5550 5549 5549 5549 5549 5549 5550 5551 5551 5551 5551 5551 5551 5551 5551 5551 5551 5552 5553 5553 5554 5554 5555 5555 5556 5557 5558 5560 5562 5563 5563 5565 5566 5566 5567 5569 5570 5571 5573 5574 5575 5576 5577 5578 5578 5578 5578 5578 5578 5578 5578 5580 5580 5581 5581 5581
5561 5564 5564 5563 5562 5561 5561 5560 5558 5557 5557 5556 5554 5553 5552 5551 5550 5550 5549 5549 5548 5547 5547 5545 5545 5545 5544 5543 5543 5543 5543 5541 5540 5539 5539 5539 5540 5541 5542 5542 5542 5542 5542 5542 5542 5541 5541 5542 5543 5543 5544 5545 5546 5546 5547 5548 5550 5552 5553 5554 5555 5557 5558 5558 5559 5561 5562 5564 5565 5567 5568 5569 5570 5571 5572 5571 5571 5571 5571 5571 5572 5574 5575 5575 5576 5576
5557 5559 5558 5557 5556 5556 5556 5554 5552 5552 5552 5550 5549 5547 5545 5545 5545 5544 5542 5541 5540 5539 5538 5537 5537 5536 5536 5536 5535 5534 5535 5534 5533 5531 5530 5530 5531 5531 5532 5532 5532 5533 5533 5533 5533 5532 5532 5533 5534 5534 5535 5536 5538 5538 5538 5540 5542 5543 5544 5545 5547 5548 5549 5550 5551 5553 5555 5556 5558 5560 5561 5562 5563 5564 5564 5563 5563 5564 5565 5566 5567 5568 5569 5570 5570 5571
5553 5554 5553 5551 5550 5550 5549 5547 5546 5546 5546 5544 5542 5541 5539 5539 5539 5537 5535 5533 5532 5531 5531 5530 5529 5528 5528 5527 5526 5525 5526 5526 5525 5523 5522 5522 5522 5522 5522 5522 5523 5523 5523 5523 5523 5523 5524 5525 5526 5526 5527 5528 5529 5529 5529 5531 5533 5534 5535 5537 5538 5539 5540 5541 5543 5546 5548 5550 5551 5552 5554 5554 5555 5556 5556 5556 5557 5558 5559 5560 5561 5562 5563 5564 5564 5565
5549 5549 5548 5547 5545 5544 5543 5541 5540 5540 5539 5537 5535 5534 5532 5532 5531 5530 5528 5526 5525 5524 5523 5522 5521 5520 5519 5518 5517 5516 5516 5516 5515 5513 5512 5513 5513 5512 5512 5512 5513 5513 5513 5513 5513 5514 5515 5516 5517 5517 5518 5519 5520 5520 5519 5521 5523 5525 5527 5529 5530 5531 5533 5534 5536 5538 5540 5542 5544 5546 5546 5546 5547 5548 5548 5549 5552 5553 5553 5553 5555 5556 5557 5557 5558 5559
5545 5544 5544 5542 5540 5539 5538 5536 5534 5533 5532 5530 5529 5527 5526 5525 5524 5522 5520 5519 5518 5517 5516 5514 5513 5512 5511 5510 5509 5508 5507 5507 5506 5504 5503 5504 5504 5502 5502 5502 5502 5502 5503 5503 5503 5504 5505 5505 5506 5506 5508 5509 5510 5510 5511 5512 5515 5517 5519 5521 5522 5524 5525 5526 5528 5530 5532 5534 5537 5538 5538 5538 5539 5540 5540 5543 5546 5546 5546 5547 5548 5549 5550 5551 5552 5552